TimeCST,TemperatureF,Dew PointF,Humidity,Sea Level PressureIn,VisibilityMPH,Wind Direction,Wind SpeedMPH,Gust SpeedMPH,PrecipitationIn,Events,Conditions,WindDirDegrees,DateUTC
12:14 AM,19.4,17.6,93,29.77,10.0,South,13.8,-,N/A,,Overcast,190,2013-01-02 06:14:00
12:33 AM,19.4,17.6,93,29.77,10.0,South,16.1,-,N/A,,Overcast,180,2013-01-02 06:33:00
12:54 AM,19.4,17.6,93,29.77,10.0,South,15.0,-,N/A,,Overcast,180,2013-01-02 06:54:00
1:13 AM,19.4,17.6,93,29.76,10.0,South,15.0,-,N/A,,Overcast,180,2013-01-02 07:13:00
1:34 AM,19.4,17.6,93,29.76,10.0,South,13.8,-,N/A,,Overcast,180,2013-01-02 07:34:00
1:54 AM,19.4,17.6,93,29.76,10.0,South,15.0,-,N/A,,Overcast,180,2013-01-02 07:54:00
2:13 AM,19.4,17.6,93,29.75,10.0,South,15.0,-,N/A,,Overcast,180,2013-01-02 08:13:00
2:34 AM,19.4,17.6,93,29.76,10.0,South,12.7,-,N/A,,Overcast,170,2013-01-02 08:34:00
2:54 AM,19.4,17.6,93,29.76,5.0,SSE,12.7,-,N/A,,Overcast,160,2013-01-02 08:54:00
3:34 AM,19.4,17.6,93,29.75,5.0,South,13.8,-,N/A,,Overcast,170,2013-01-02 09:34:00
3:54 AM,19.4,17.6,93,29.75,7.0,South,12.7,-,N/A,,Overcast,170,2013-01-02 09:54:00
4:13 AM,19.4,19.4,100,29.75,7.0,South,11.5,-,N/A,,Overcast,170,2013-01-02 10:13:00
4:34 AM,21.2,19.4,93,29.75,5.0,SSE,11.5,-,N/A,,Overcast,160,2013-01-02 10:34:00
4:54 AM,19.4,19.4,100,29.75,4.0,SSE,11.5,-,N/A,,Overcast,160,2013-01-02 10:54:00
5:13 AM,19.4,19.4,100,29.75,4.0,SSE,10.4,-,N/A,,Overcast,160,2013-01-02 11:13:00
5:34 AM,21.2,19.4,93,29.75,5.0,SSE,11.5,-,N/A,,Overcast,160,2013-01-02 11:34:00
6:13 AM,21.2,19.4,93,29.76,7.0,Calm,Calm,-,N/A,,Overcast,0,2013-01-02 12:13:00
6:34 AM,21.2,19.4,93,29.78,4.0,Calm,Calm,-,N/A,,Overcast,0,2013-01-02 12:34:00
6:54 AM,21.2,21.2,100,29.80,4.0,NNW,8.1,-,N/A,Snow,Light Snow,340,2013-01-02 12:54:00
7:13 AM,23.0,21.2,93,29.80,5.0,NNW,15.0,-,N/A,Snow,Light Snow,340,2013-01-02 13:13:00
7:34 AM,21.2,19.4,93,29.81,4.0,NNW,17.3,-,N/A,Snow,Light Snow,330,2013-01-02 13:34:00
7:54 AM,19.4,17.6,93,29.83,4.0,NNW,18.4,-,N/A,Snow,Light Snow,330,2013-01-02 13:54:00
8:14 AM,17.6,15.8,93,29.84,4.0,NNW,18.4,23.0,N/A,Snow,Light Snow,330,2013-01-02 14:14:00
8:34 AM,17.6,15.8,93,29.85,4.0,NNW,18.4,-,N/A,Snow,Light Snow,330,2013-01-02 14:34:00
8:54 AM,15.8,14.0,93,29.86,4.0,NNW,18.4,-,N/A,Snow,Light Snow,330,2013-01-02 14:54:00
9:14 AM,15.8,12.2,86,29.87,4.0,NNW,18.4,24.2,N/A,Snow,Light Snow,330,2013-01-02 15:14:00
9:34 AM,15.8,12.2,86,29.89,7.0,NNW,17.3,-,N/A,,Overcast,330,2013-01-02 15:34:00
9:54 AM,15.8,12.2,86,29.90,7.0,NNW,17.3,24.2,N/A,,Overcast,340,2013-01-02 15:54:00
10:14 AM,14.0,10.4,86,29.91,5.0,NNW,18.4,24.2,N/A,,Overcast,340,2013-01-02 16:14:00
10:34 AM,12.2,10.4,92,29.92,10.0,NNW,15.0,-,N/A,,Scattered Clouds,340,2013-01-02 16:34:00
10:54 AM,12.2,10.4,92,29.93,10.0,NNW,17.3,-,N/A,,Clear,340,2013-01-02 16:54:00
11:14 AM,12.2,10.4,92,29.94,10.0,NNW,19.6,-,N/A,,Scattered Clouds,340,2013-01-02 17:14:00
11:34 AM,12.2,10.4,92,29.95,7.0,NNW,17.3,24.2,N/A,,Scattered Clouds,340,2013-01-02 17:34:00
11:54 AM,12.2,10.4,92,29.95,7.0,NNW,18.4,24.2,N/A,,Clear,340,2013-01-02 17:54:00
12:14 PM,14.0,10.4,86,29.95,7.0,NNW,18.4,24.2,N/A,,Clear,340,2013-01-02 18:14:00
12:34 PM,14.0,10.4,86,29.96,5.0,NNW,19.6,25.3,N/A,,Clear,330,2013-01-02 18:34:00
12:54 PM,14.0,10.4,86,29.97,7.0,NNW,20.7,24.2,N/A,,Mostly Cloudy,330,2013-01-02 18:54:00
1:14 PM,12.2,10.4,92,29.97,5.0,NNW,21.9,25.3,N/A,,Overcast,340,2013-01-02 19:14:00
1:34 PM,12.2,10.4,92,29.97,7.0,NNW,18.4,26.5,N/A,,Overcast,340,2013-01-02 19:34:00
1:53 PM,12.2,10.4,92,29.98,7.0,NNW,21.9,27.6,N/A,,Overcast,340,2013-01-02 19:53:00
2:14 PM,12.2,8.6,85,29.99,7.0,NNW,18.4,25.3,N/A,,Mostly Cloudy,330,2013-01-02 20:14:00
2:34 PM,12.2,8.6,85,29.99,7.0,NNW,18.4,27.6,N/A,,Scattered Clouds,330,2013-01-02 20:34:00
2:53 PM,12.2,8.6,85,30.00,10.0,NNW,19.6,-,N/A,,Clear,330,2013-01-02 20:53:00
3:14 PM,12.2,6.8,79,30.02,10.0,NNW,18.4,24.2,N/A,,Clear,330,2013-01-02 21:14:00
3:34 PM,12.2,6.8,79,30.03,10.0,NNW,17.3,20.7,N/A,,Clear,340,2013-01-02 21:34:00
3:53 PM,10.4,6.8,85,30.04,10.0,NNW,16.1,-,N/A,,Scattered Clouds,330,2013-01-02 21:53:00
4:14 PM,10.4,6.8,85,30.06,10.0,NNW,17.3,-,N/A,,Mostly Cloudy,330,2013-01-02 22:14:00
4:34 PM,8.6,5.0,85,30.07,10.0,NNW,16.1,-,N/A,,Scattered Clouds,330,2013-01-02 22:34:00
4:53 PM,8.6,3.2,79,30.08,10.0,NNW,15.0,-,N/A,,Clear,330,2013-01-02 22:53:00
5:14 PM,6.8,3.2,85,30.10,10.0,NNW,17.3,-,N/A,,Clear,330,2013-01-02 23:14:00
5:34 PM,6.8,3.2,85,30.11,10.0,NNW,13.8,-,N/A,,Clear,330,2013-01-02 23:34:00
5:53 PM,6.8,1.4,79,30.12,10.0,NNW,18.4,21.9,N/A,,Clear,340,2013-01-02 23:53:00
6:14 PM,6.8,1.4,79,30.13,10.0,NNW,16.1,23.0,N/A,,Clear,340,2013-01-03 00:14:00
6:33 PM,5.0,1.4,85,30.15,10.0,NNW,16.1,-,N/A,,Clear,340,2013-01-03 00:33:00
6:54 PM,5.0,1.4,85,30.16,10.0,NNW,11.5,-,N/A,,Clear,340,2013-01-03 00:54:00
7:14 PM,3.2,1.4,92,30.17,10.0,NNW,15.0,-,N/A,,Clear,340,2013-01-03 01:14:00
7:33 PM,3.2,1.4,92,30.17,10.0,NNW,13.8,-,N/A,,Clear,340,2013-01-03 01:33:00
7:54 PM,3.2,1.4,92,30.17,10.0,NNW,15.0,-,N/A,,Clear,340,2013-01-03 01:54:00
8:14 PM,3.2,-0.4,85,30.17,10.0,NNW,15.0,-,N/A,,Scattered Clouds,340,2013-01-03 02:14:00
8:34 PM,3.2,-0.4,85,30.17,10.0,NNW,13.8,-,N/A,,Clear,340,2013-01-03 02:34:00
8:54 PM,3.2,-0.4,85,30.19,10.0,NNW,15.0,-,N/A,,Clear,340,2013-01-03 02:54:00
9:14 PM,3.2,-0.4,85,30.19,10.0,NNW,13.8,-,N/A,,Clear,340,2013-01-03 03:14:00
9:34 PM,3.2,-0.4,85,30.19,10.0,NNW,11.5,-,N/A,,Clear,330,2013-01-03 03:34:00
9:54 PM,3.2,-0.4,85,30.20,10.0,NNW,10.4,-,N/A,,Clear,330,2013-01-03 03:54:00
10:14 PM,3.2,-0.4,85,30.20,10.0,NW,8.1,-,N/A,,Clear,320,2013-01-03 04:14:00
10:34 PM,1.4,-2.2,85,30.21,10.0,NNW,9.2,-,N/A,,Clear,330,2013-01-03 04:34:00
10:54 PM,1.4,-0.4,92,30.21,10.0,NNW,11.5,-,N/A,,Clear,330,2013-01-03 04:54:00
11:13 PM,1.4,-0.4,92,30.22,10.0,NNW,12.7,-,N/A,,Clear,330,2013-01-03 05:13:00
11:34 PM,1.4,-0.4,92,30.23,10.0,NNW,10.4,-,N/A,,Clear,330,2013-01-03 05:34:00
11:54 PM,1.4,-2.2,85,30.22,10.0,NNW,9.2,-,N/A,,Clear,330,2013-01-03 05:54:00